Tracking 19564 objects as of 19-Mar-2019
HD Live streaming from Space Station
objects crossing your sky now

COSMOS 1375

Track COSMOS 1375 now!
10-day predictions
COSMOS 1375 is classified as:


NORAD ID: 13259
Int'l Code: 1982-055A
Perigee: 948.6 km
Apogee: 971.8 km
Inclination: 65.8 °
Period: 104.1 minutes
Semi major axis: 7331 km
RCS: 0.955 m2 (medium)
Launch date: June 6, 1982
Source: Commonwealth of Independent States (former USSR) (CIS)
Launch site: PLESETSK MISSILE AND SPACE COMPLEX (PKMTR)
aabbcc
Your satellite tracking list
Your tracking list is empty




NASA's NSSDC Master Catalog

Two Line Element Set (TLE):
1 13259U 82055A   19077.72941099  .00000018  00000-0  91692-4 0  9995
2 13259  65.8318 202.6036 0015848  23.5285 336.6503 13.83058402847833
Source of the keplerian elements: AFSPC